Terug naar catalogus

THORAD AGENA D DEB

ActiefVLEO
NORAD 4938·DEBRIS·🇺🇸 United States

Gelanceerd Sep 30, 1969 vanaf Vandenberg Space Force Base

Loading…

Volgende Passages

TLE

Source: Space-Track
1 04938U 69082HJ  26228.46809379  .00005093  00000-0  47258-3 0  9991
2 04938  70.1172 244.7591 0012621 320.7937  39.2306 14.94959987982691

Volg THORAD AGENA D DEB in realtime met AllMySat

Download on the App Store